[[{"header":{"parameterUnit":"m.s-1","parameterCategory":1,"la1":30.2991,"la2":30.254,"lo1":-89.0895,"lo2":-89.0444,"dy":0.0017,"dx":0.0017,"nx":28,"ny":28,"refTime":"2023-08-02T03:00:00:Z","depth":0,"parameterNumber":2,"parameterNumberName":"U-component_of_WINDS"},"data":[0,0,0,0,0,0,0,0,0,0,0,0,0,0,0,0,0,0,0,0,0,0,0,0,0,0,0,0,0,0,0,0,0,0,0,0,0,0,0,0,0,0,0,0,0,0,0,0,0,0,0,0,0,0,0,0,0,0,0.1076,0.1076,0,0.114,0.1141,0.1141,0.1167,0.1166,0.1166,0.1166,0.1235,0.1237,0.1239,0,0,0,0,0,0,0,0,0,0,0,0,0,0.0977,0.0979,0.1076,0.1077,0.1077,0.114,0.1141,0.1141,0.1167,0.1166,0.1166,0.1166,0.1234,0.1236,0.1239,0,0,0,0,0,0,0,0,0,0,0,0,0,0.1029,0.0979,0.1076,0.1097,0.11,0.1139,0.1141,0.1142,0.1167,0.1166,0.1166,0.1166,0.1233,0.1236,0.1239,0.1263,0,0,0.1248,0.125,0,0,0,0,0,0,0,0,0.1026,0.1032,0.1093,0.1096,0.1099,0.1145,0.1131,0.1182,0.1167,0.1141,0.1166,0.1166,0.1205,0.121,0.1223,0.1266,0.1269,0.1248,0.125,0.1252,0.1252,0,0,0,0,0,0,0,0.1022,0.103,0.1101,0.1094,0.1098,0.1104,0.1111,0.1141,0.1174,0.1144,0.1146,0.1153,0.1207,0.122,0.1225,0.127,0.1248,0.1251,0.1253,0.1254,0.1334,0.1335,0,0,0,0,0,0,0.1015,0.1026,0.1099,0.1103,0.1061,0.1106,0.1114,0.113,0.1174,0.118,0.1153,0.1153,0.1215,0.1221,0.1227,0.1258,0.1252,0.1254,0.1256,0.1334,0.1335,0.1335,0,0,0,0,0,0,0.1012,0.1021,0.1097,0.1065,0.1075,0.1108,0.1126,0.1132,0.1145,0.1181,0.1187,0.116,0.1215,0.1223,0.1253,0.126,0.1256,0.1258,0.1334,0.1334,0.1335,0.1318,0,0,0,0,0,0,0.1009,0.102,0.1029,0.1065,0.1077,0.1121,0.1127,0.1133,0.115,0.1152,0.119,0.1196,0.1216,0.1249,0.1256,0.1264,0.1261,0.1333,0.1334,0.1335,0.1318,0.1318,0.1318,0,0,0,0,0,0.1006,0.1023,0.1029,0.1038,0.1089,0.1121,0.1128,0.115,0.115,0.116,0.1182,0.1194,0.1258,0.1252,0.126,0.1269,0.1333,0.1334,0.1335,0.1318,0.1318,0.1318,0,0,0,0,0,0,0.0988,0.1028,0.1036,0.1065,0.1089,0.1125,0.1138,0.1149,0.1175,0.1175,0.1202,0.1211,0.1238,0.1257,0.1249,0.1294,0.1296,0.1299,0.1281,0.1281,0.1281,0.1276,0.1263,0,0,0,0,0,0.0987,0.1009,0.1043,0.1065,0.1077,0.1105,0.112,0.1135,0.1162,0.1173,0.1197,0.1224,0.125,0.1266,0.1292,0.1321,0.1329,0.1331,0.1331,0.1331,0.1333,0.1348,0.1349,0.1337,0.1337,0.1337,0,0,0.0986,0.101,0.1023,0.1062,0.1083,0.1106,0.1114,0.1138,0.1155,0.1177,0.1206,0.1225,0.1256,0.1285,0.1299,0.1302,0.1338,0.1331,0.1331,0.1333,0.1349,0.135,0.1351,0.1338,0.1338,0.1338,0,0,0.0995,0.1016,0.1036,0.1056,0.1087,0.1106,0.111,0.1145,0.1158,0.1187,0.1203,0.1225,0.1269,0.129,0.1307,0.1322,0.1334,0.133,0.1329,0.1344,0.1345,0.1346,0.1352,0.1353,0.1332,0.1332,0.1332,0,0.0991,0.1025,0.1046,0.1069,0.1085,0.1104,0.1125,0.1144,0.1182,0.1193,0.1194,0.1249,0.1272,0.1305,0.1309,0.1322,0.1328,0.1326,0.1343,0.1344,0.1346,0.1351,0.1353,0.1331,0.1331,0.1331,0.1331,0,0.1017,0.104,0.1053,0.1088,0.1106,0.1128,0.1153,0.1168,0.1181,0.1199,0.1229,0.1256,0.1287,0.1296,0.1309,0.1331,0.1332,0.1338,0.1341,0.1346,0.1351,0.1354,0.133,0.133,0.1331,0.1331,0,0,0.1019,0.1063,0.1067,0.1083,0.1117,0.1136,0.1158,0.1188,0.1201,0.1226,0.1245,0.1281,0.1286,0.1305,0.1321,0.1334,0.1344,0.1338,0.1339,0.1338,0.137,0.1365,0.1367,0.1351,0.1352,0.1352,0.1367,0,0.1033,0.1073,0.1092,0.1124,0.1145,0.1162,0.1182,0.1205,0.1222,0.1244,0.1263,0.1288,0.1293,0.1304,0.1318,0.1339,0.135,0.1339,0.137,0.1371,0.1362,0.137,0.1366,0.1379,0.1369,0.137,0.137,0,0.1055,0.1079,0.1112,0.1143,0.1153,0.117,0.1197,0.1217,0.1244,0.1256,0.1275,0.129,0.1314,0.1314,0.1348,0.134,0.1354,0.1366,0.1367,0.1371,0.1371,0.1375,0.1383,0.1385,0.1374,0.1373,0.1373,0,0.1053,0.1093,0.1118,0.1131,0.1167,0.1178,0.1194,0.122,0.1236,0.1261,0.1271,0.1298,0.1313,0.1334,0.1356,0.1354,0.1387,0.1389,0.1398,0.1397,0.1405,0.1404,0.1416,0.1413,0.1413,0.1413,0.1413,0,0.1067,0.1087,0.1117,0.1133,0.1155,0.1177,0.1199,0.1216,0.1239,0.1258,0.1274,0.1292,0.1319,0.134,0.1357,0.1383,0.1389,0.14,0.1404,0.1398,0.1397,0.1408,0.1408,0.1413,0.1413,0.1413,0.1413,0,0.1069,0.109,0.1118,0.1149,0.1158,0.1173,0.12,0.1216,0.1233,0.1257,0.1264,0.1292,0.1317,0.134,0.1375,0.1386,0.1412,0.1417,0.1402,0.1405,0.1412,0.1411,0.1432,0.1435,0.1429,0.1429,0.1429,0,0.1077,0.1092,0.1125,0.1138,0.1153,0.1175,0.1191,0.1212,0.1228,0.1259,0.1271,0.1297,0.132,0.136,0.1383,0.1409,0.1416,0.1421,0.142,0.1413,0.1416,0.1415,0.1416,0.1421,0.1421,0.1421,0.1421,0,0.1089,0.1098,0.112,0.1145,0.1163,0.1184,0.1205,0.1215,0.1241,0.1258,0.1283,0.1301,0.1335,0.1361,0.1389,0.1406,0.1418,0.1421,0.1424,0.1419,0.141,0.1415,0.1402,0.1421,0.1421,0.1421,0.1421,0.1421,0.1094,0.1108,0.1133,0.1156,0.1174,0.1194,0.1209,0.1228,0.1249,0.1278,0.1289,0.1316,0.1341,0.138,0.1396,0.1417,0.142,0.1425,0.1426,0.1427,0.1426,0.1406,0.1423,0.1423,0.1423,0.1423,0.1423,0,0.1107,0.1123,0.1144,0.1173,0.1191,0.1199,0.1223,0.1238,0.126,0.1282,0.1303,0.1332,0.1357,0.1382,0.1408,0.142,0.1426,0.1426,0.1426,0.143,0.1422,0.1417,0.1421,0.1421,0.1421,0.1421,0.1421,0.1421,0.1116,0.114,0.1152,0.1185,0.1201,0.1226,0.1239,0.1256,0.1274,0.1305,0.1326,0.1341,0.1364,0.1392,0.1415,0.1421,0.1431,0.1429,0.1437,0.143,0.143,0.143,0.1425,0.1431,0.1431,0.1443,0.1443,0.1443]},{"header":{"parameterUnit":"m.s-1","parameterCategory":1,"la1":30.2991,"la2":30.254,"lo1":-89.0895,"lo2":-89.0444,"dy":0.0017,"dx":0.0017,"nx":28,"ny":28,"refTime":"2023-08-02T03:00:00:Z","depth":0,"parameterNumber":3,"parameterNumberName":"V-component_of_WINDS"},"data":[0,0,0,0,0,0,0,0,0,0,0,0,0,0,0,0,0,0,0,0,0,0,0,0,0,0,0,0,0,0,0,0,0,0,0,0,0,0,0,0,0,0,0,0,0,0,0,0,0,0,0,0,0,0,0,0,0,0,2.6127,2.6127,0,2.609,2.6089,2.6089,2.6133,2.6134,2.6136,2.6137,2.6093,2.609,2.6088,0,0,0,0,0,0,0,0,0,0,0,0,0,2.6231,2.6229,2.6127,2.6127,2.6127,2.609,2.6089,2.6089,2.6132,2.6134,2.6136,2.6138,2.6094,2.6091,2.6087,0,0,0,0,0,0,0,0,0,0,0,0,0,2.6189,2.6228,2.6128,2.6144,2.6145,2.609,2.6089,2.6088,2.6132,2.6134,2.6137,2.6139,2.6095,2.6091,2.6087,2.6012,0,0,2.6074,2.6073,0,0,0,0,0,0,0,0,2.6191,2.6185,2.6142,2.6143,2.6144,2.6119,2.611,2.6063,2.6131,2.6137,2.6138,2.614,2.6099,2.6095,2.6082,2.601,2.6008,2.6074,2.6072,2.607,2.6069,0,0,0,0,0,0,0,2.6194,2.6187,2.6112,2.6141,2.6142,2.6151,2.6148,2.6101,2.6104,2.6136,2.614,2.6135,2.61,2.6086,2.6081,2.6007,2.6074,2.6071,2.6068,2.6066,2.5868,2.5865,0,0,0,0,0,0,2.6196,2.6189,2.6114,2.6111,2.6174,2.6147,2.6144,2.6124,2.6105,2.6104,2.6133,2.6137,2.6092,2.6086,2.608,2.5988,2.607,2.6066,2.6064,2.5871,2.5867,2.5864,0,0,0,0,0,0,2.6198,2.6189,2.6115,2.6151,2.6142,2.6143,2.612,2.6122,2.6108,2.6102,2.6102,2.6118,2.6093,2.6086,2.6028,2.5987,2.6064,2.606,2.5874,2.587,2.5866,2.5805,0,0,0,0,0,0,2.6201,2.6189,2.6162,2.615,2.614,2.6065,2.6118,2.6119,2.6101,2.6107,2.6088,2.6088,2.6095,2.6034,2.6024,2.5983,2.6057,2.5878,2.5872,2.5867,2.5811,2.5799,2.579,0,0,0,0,0,2.6204,2.6146,2.6161,2.6151,2.6107,2.6063,2.6057,2.6068,2.6098,2.6069,2.6066,2.6088,2.5994,2.6028,2.6017,2.5974,2.588,2.5874,2.5868,2.5815,2.5802,2.579,0,0,0,0,0,0,2.6152,2.6145,2.6161,2.6097,2.6081,2.6071,2.6035,2.6054,2.6027,2.6032,2.6046,2.6041,2.5979,2.5971,2.6009,2.5899,2.5942,2.5933,2.5906,2.5892,2.5882,2.5884,2.6054,0,0,0,0,0,2.6133,2.61,2.6095,2.604,2.6031,2.6034,2.6016,2.6026,2.6008,2.6001,2.5993,2.5973,2.5939,2.5916,2.5884,2.5811,2.5805,2.5776,2.5765,2.5757,2.5748,2.5705,2.5691,2.5844,2.5844,2.5844,0,0,2.6093,2.6086,2.6064,2.6029,2.6017,2.598,2.6028,2.5988,2.5959,2.5994,2.5939,2.5932,2.5911,2.5844,2.5815,2.5836,2.5705,2.5749,2.5742,2.5737,2.5697,2.5682,2.5669,2.5839,2.584,2.5841,0,0,2.6002,2.5994,2.5945,2.5933,2.5915,2.5918,2.5906,2.5893,2.589,2.5836,2.586,2.5826,2.5768,2.5751,2.5734,2.5635,2.5654,2.5625,2.5568,2.5526,2.5514,2.5504,2.5465,2.5451,2.5617,2.5617,2.5616,0,2.5954,2.5901,2.5918,2.5875,2.5857,2.5889,2.5838,2.5825,2.5796,2.5782,2.5808,2.5733,2.5722,2.565,2.5626,2.5613,2.5597,2.5625,2.5515,2.5505,2.5495,2.5458,2.5444,2.5613,2.5613,2.5614,2.5614,0,2.5842,2.5805,2.5767,2.574,2.5719,2.5672,2.5679,2.5655,2.5667,2.5667,2.5609,2.5596,2.5561,2.5545,2.5556,2.5474,2.5487,2.5514,2.5556,2.5476,2.5441,2.5428,2.5608,2.5609,2.561,2.5611,0,0,2.5714,2.5697,2.5682,2.5669,2.5652,2.5622,2.5576,2.5544,2.5521,2.5501,2.546,2.541,2.5434,2.5415,2.5424,2.5388,2.5306,2.5418,2.5418,2.5395,2.5211,2.5189,2.5172,2.532,2.5317,2.5315,2.5211,0,2.5619,2.5541,2.5554,2.5477,2.5441,2.547,2.543,2.5413,2.5411,2.5379,2.5376,2.5339,2.5375,2.5363,2.5329,2.5324,2.5269,2.5332,2.5278,2.5276,2.5279,2.5155,2.5132,2.5034,2.5198,2.5196,2.5195,0,2.5498,2.5474,2.5393,2.538,2.5365,2.5329,2.5298,2.5269,2.5249,2.525,2.5229,2.5245,2.5196,2.5242,2.5173,2.5215,2.5194,2.5188,2.5185,2.5177,2.5228,2.514,2.5004,2.4987,2.5174,2.5176,2.5177,0,2.5408,2.5356,2.53,2.5289,2.5273,2.5246,2.5237,2.5221,2.52,2.5173,2.5159,2.5127,2.5108,2.5081,2.5086,2.512,2.5014,2.5062,2.501,2.501,2.4984,2.4985,2.4838,2.4977,2.4977,2.4977,2.4977,0,2.5299,2.5248,2.526,2.5225,2.5168,2.5182,2.5124,2.5119,2.5104,2.5067,2.5091,2.5056,2.5067,2.5031,2.5035,2.4974,2.4967,2.4964,2.4964,2.4959,2.4959,2.4943,2.4949,2.4973,2.4974,2.4975,2.4976,0,2.5188,2.5194,2.5135,2.5125,2.5121,2.5078,2.5068,2.5034,2.5035,2.4988,2.4977,2.4977,2.4936,2.4939,2.4893,2.4895,2.482,2.4831,2.4826,2.4827,2.4774,2.4778,2.461,2.4587,2.4743,2.4742,2.4741,0,2.5116,2.5077,2.5063,2.5041,2.503,2.4994,2.4973,2.4986,2.4962,2.4937,2.4905,2.4867,2.4836,2.4768,2.4762,2.4726,2.4734,2.4677,2.4728,2.4723,2.4728,2.4729,2.4724,2.4666,2.4664,2.4663,2.4662,0,2.4986,2.4992,2.4961,2.4931,2.4905,2.4882,2.486,2.484,2.4851,2.4823,2.4782,2.4758,2.4711,2.467,2.4636,2.4625,2.4643,2.4646,2.4632,2.4624,2.4622,2.4619,2.4795,2.4649,2.4651,2.4651,2.4652,2.4653,2.489,2.4856,2.484,2.4805,2.4791,2.477,2.4737,2.4734,2.47,2.4663,2.4673,2.4625,2.4605,2.4561,2.4547,2.4508,2.4528,2.4508,2.4502,2.4496,2.4488,2.4631,2.4502,2.4502,2.4503,2.4503,2.4503,0,2.4759,2.475,2.4718,2.4688,2.4659,2.4682,2.466,2.4633,2.4592,2.4572,2.4542,2.4493,2.4454,2.4446,2.4408,2.4378,2.4385,2.4367,2.4368,2.4364,2.4474,2.4489,2.4362,2.4362,2.4362,2.4362,2.4362,2.4362,2.4687,2.463,2.4632,2.4567,2.4559,2.4514,2.4498,2.4478,2.4463,2.4407,2.4376,2.4371,2.4355,2.4316,2.428,2.4279,2.4262,2.4239,2.424,2.4343,2.4357,2.437,2.4384,2.4237,2.4236,2.4133,2.4132,2.4131]}]]